| time (UTC) | temp C | wind direction | speed KPH | gust KPH | rain 1hr cm | rain 24hr cm | rain mn cm | humidity % | barometer mb |
| 20260502152300 | 14 | 47 | 14.5 | 29.0 | 0.00 | 0.00 | 0.00 | 44 | 1018.6 |
| 20260502151759 | 13 | 37 | 20.9 | 29.0 | 0.00 | 0.00 | 0.00 | 46 | 1018.6 |
| 20260502151300 | 13 | 59 | 19.3 | 25.7 | 0.00 | 0.00 | 0.00 | 45 | 1018.6 |
| 20260502150800 | 13 | 73 | 11.3 | 25.7 | 0.00 | 0.00 | 0.00 | 46 | 1018.6 |
| 20260502150300 | 13 | 44 | 17.7 | 25.7 | 0.00 | 0.00 | 0.00 | 47 | 1018.6 |
| 20260502130259 | 11 | 79 | 6.4 | 17.7 | 0.00 | 0.00 | 0.00 | 60 | 1017.6 |
| 20260502123759 | 10 | 46 | 17.7 | 22.5 | 0.00 | 0.00 | 0.00 | 61 | 1017.6 |
| 20260502123259 | 10 | 46 | 19.3 | 24.1 | 0.00 | 0.00 | 0.00 | 61 | 1017.6 |
| 20260502122800 | 10 | 40 | 22.5 | 25.7 | 0.00 | 0.00 | 0.00 | 62 | 1017.6 |
| 20260502122259 | 10 | 97 | 9.7 | 25.7 | 0.00 | 0.00 | 0.00 | 62 | 1017.2 |
| 20260502121800 | 10 | 71 | 11.3 | 24.1 | 0.00 | 0.00 | 0.00 | 62 | 1017.2 |
| 20260502121259 | 10 | 60 | 14.5 | 24.1 | 0.00 | 0.00 | 0.00 | 62 | 1017.2 |
| 20260502120800 | 10 | 68 | 14.5 | 24.1 | 0.00 | 0.00 | 0.00 | 62 | 1017.2 |
| 20260502120300 | 10 | 52 | 14.5 | 22.5 | 0.00 | 0.00 | 0.00 | 62 | 1017.2 |
| 20260502115800 | 10 | 44 | 6.4 | 22.5 | 0.00 | 0.00 | 0.00 | 63 | 1017.2 |
| 20260502115300 | 10 | 87 | 6.4 | 20.9 | 0.00 | 0.00 | 0.00 | 63 | 1017.2 |
| 20260502114800 | 9 | 59 | 11.3 | 20.9 | 0.00 | 0.00 | 0.00 | 63 | 1017.2 |
| 20260502114300 | 9 | 70 | 9.7 | 20.9 | 0.00 | 0.00 | 0.00 | 62 | 1016.8 |
| 20260502113800 | 9 | 50 | 17.7 | 20.9 | 0.00 | 0.00 | 0.00 | 62 | 1016.8 |
| 20260502113300 | 9 | 54 | 12.9 | 20.9 | 0.00 | 0.00 | 0.00 | 62 | 1016.8 |
| 20260502112800 | 9 | 38 | 14.5 | 20.9 | 0.00 | 0.00 | 0.00 | 62 | 1016.5 |
| 20260502112259 | 9 | 59 | 4.8 | 20.9 | 0.00 | 0.00 | 0.00 | 62 | 1016.5 |
| 20260502111800 | 9 | 3 | 4.8 | 24.1 | 0.00 | 0.00 | 0.00 | 62 | 1016.5 |
| 20260502111300 | 9 | 51 | 22.5 | 24.1 | 0.00 | 0.00 | 0.00 | 62 | 1016.5 |
| 20260502110800 | 9 | 95 | 11.3 | 22.5 | 0.00 | 0.00 | 0.00 | 62 | 1016.1 |
| 20260502110300 | 10 | 47 | 14.5 | 22.5 | 0.00 | 0.00 | 0.00 | 62 | 1016.1 |
| 20260502105759 | 10 | 78 | 9.7 | 22.5 | 0.00 | 0.00 | 0.00 | 62 | 1016.1 |
| 20260502105259 | 10 | 57 | 12.9 | 22.5 | 0.00 | 0.00 | 0.00 | 61 | 1016.1 |
| 20260502104800 | 10 | 63 | 14.5 | 22.5 | 0.00 | 0.00 | 0.00 | 62 | 1015.8 |
| 20260502104259 | 10 | 61 | 11.3 | 19.3 | 0.00 | 0.00 | 0.00 | 62 | 1016.1 |
| 20260502103800 | 10 | 48 | 12.9 | 20.9 | 0.00 | 0.00 | 0.00 | 62 | 1016.1 |
| 20260502103300 | 10 | 38 | 9.7 | 20.9 | 0.00 | 0.00 | 0.00 | 62 | 1016.1 |
| 20260502102759 | 10 | 73 | 11.3 | 19.3 | 0.00 | 0.00 | 0.00 | 62 | 1016.1 |
| 20260502102259 | 10 | 34 | 12.9 | 19.3 | 0.00 | 0.00 | 0.00 | 62 | 1016.1 |
| 20260502101759 | 10 | 41 | 11.3 | 22.5 | 0.00 | 0.00 | 0.00 | 62 | 1015.8 |
| 20260502101300 | 10 | 43 | 9.7 | 22.5 | 0.00 | 0.00 | 0.00 | 62 | 1015.8 |
| 20260502100800 | 10 | 34 | 6.4 | 17.7 | 0.00 | 0.00 | 0.00 | 62 | 1016.1 |
| 20260502100259 | 10 | 29 | 14.5 | 20.9 | 0.00 | 0.00 | 0.00 | 61 | 1015.8 |
| 20260502091300 | 10 | 69 | 6.4 | 17.7 | 0.00 | 0.00 | 0.00 | 58 | 1016.1 |
| 20260502090800 | 10 | 65 | 6.4 | 17.7 | 0.00 | 0.00 | 0.00 | 58 | 1016.1 |
| 20260502090300 | 10 | 68 | 8.0 | 19.3 | 0.00 | 0.00 | 0.00 | 58 | 1016.5 |
| 20260502071259 | 11 | 68 | 8.0 | 24.1 | 0.00 | 0.00 | 0.00 | 54 | 1015.8 |
| 20260502070759 | 11 | 65 | 14.5 | 27.4 | 0.00 | 0.00 | 0.00 | 54 | 1016.5 |
| 20260502070259 | 11 | 47 | 17.7 | 27.4 | 0.00 | 0.00 | 0.00 | 53 | 1016.1 |
| 20260502065800 | 11 | 38 | 11.3 | 20.9 | 0.00 | 0.00 | 0.00 | 53 | 1016.5 |
| 20260502065300 | 11 | 44 | 12.9 | 22.5 | 0.00 | 0.00 | 0.00 | 53 | 1016.5 |
| 20260502064800 | 11 | 86 | 8.0 | 24.1 | 0.00 | 0.00 | 0.00 | 53 | 1016.5 |
| 20260502064300 | 11 | 59 | 14.5 | 24.1 | 0.00 | 0.00 | 0.00 | 52 | 1016.8 |
| 20260502063800 | 11 | 68 | 19.3 | 24.1 | 0.00 | 0.00 | 0.00 | 53 | 1016.8 |
| 20260502063300 | 11 | 58 | 9.7 | 24.1 | 0.00 | 0.00 | 0.00 | 53 | 1016.8 |
| 20260502062800 | 11 | 61 | 9.7 | 17.7 | 0.00 | 0.00 | 0.00 | 53 | 1017.2 |
| 20260502062259 | 11 | 77 | 14.5 | 19.3 | 0.00 | 0.00 | 0.00 | 52 | 1017.6 |
| 20260502061759 | 11 | 83 | 9.7 | 24.1 | 0.00 | 0.00 | 0.00 | 52 | 1017.2 |
| 20260502061300 | 11 | 69 | 4.8 | 24.1 | 0.00 | 0.00 | 0.00 | 52 | 1017.2 |
| 20260502060800 | 11 | 57 | 9.7 | 20.9 | 0.00 | 0.00 | 0.00 | 53 | 1017.2 |
| 20260502060300 | 12 | 67 | 11.3 | 20.9 | 0.00 | 0.00 | 0.00 | 52 | 1017.2 |
| 20260502055759 | 12 | 70 | 11.3 | 20.9 | 0.00 | 0.00 | 0.00 | 53 | 1017.2 |
| 20260502055259 | 12 | 70 | 8.0 | 20.9 | 0.00 | 0.00 | 0.00 | 53 | 1017.2 |
| 20260502054759 | 12 | 64 | 8.0 | 20.9 | 0.00 | 0.00 | 0.00 | 53 | 1017.2 |
| 20260502054259 | 12 | 76 | 6.4 | 17.7 | 0.00 | 0.00 | 0.00 | 53 | 1017.2 |
| 20260502053759 | 12 | 65 | 12.9 | 17.7 | 0.00 | 0.00 | 0.00 | 54 | 1017.2 |
| 20260502053259 | 12 | 44 | 3.2 | 17.7 | 0.00 | 0.00 | 0.00 | 54 | 1017.2 |
| 20260502052800 | 12 | 60 | 6.4 | 19.3 | 0.00 | 0.00 | 0.00 | 54 | 1016.8 |
| 20260502052300 | 12 | 51 | 16.1 | 19.3 | 0.00 | 0.00 | 0.00 | 55 | 1016.5 |
| 20260502051759 | 12 | 47 | 11.3 | 19.3 | 0.00 | 0.00 | 0.00 | 55 | 1016.8 |
| 20260502051259 | 12 | 83 | 6.4 | 20.9 | 0.00 | 0.00 | 0.00 | 55 | 1016.8 |
| 20260502050759 | 12 | 36 | 9.7 | 20.9 | 0.00 | 0.00 | 0.00 | 55 | 1016.5 |
| 20260502050259 | 12 | 62 | 6.4 | 24.1 | 0.00 | 0.00 | 0.00 | 56 | 1016.5 |
| 20260502045800 | 12 | 57 | 11.3 | 24.1 | 0.00 | 0.00 | 0.00 | 55 | 1016.5 |
| 20260502045259 | 12 | 50 | 14.5 | 22.5 | 0.00 | 0.00 | 0.00 | 55 | 1016.8 |
| 20260502044800 | 12 | 72 | 12.9 | 20.9 | 0.00 | 0.00 | 0.00 | 57 | 1016.1 |
| 20260502044259 | 12 | 70 | 12.9 | 20.9 | 0.00 | 0.00 | 0.00 | 57 | 1016.5 |
| 20260502043800 | 12 | 92 | 4.8 | 17.7 | 0.00 | 0.00 | 0.00 | 58 | 1016.5 |
| 20260502043300 | 12 | 79 | 9.7 | 19.3 | 0.00 | 0.00 | 0.00 | 58 | 1016.5 |
| 20260502042800 | 12 | 70 | 11.3 | 20.9 | 0.00 | 0.00 | 0.00 | 58 | 1016.5 |
| 20260502042259 | 12 | 64 | 9.7 | 20.9 | 0.00 | 0.00 | 0.00 | 59 | 1016.5 |
| 20260502041759 | 12 | 74 | 12.9 | 20.9 | 0.00 | 0.00 | 0.00 | 59 | 1016.1 |
| 20260502041300 | 12 | 68 | 8.0 | 20.9 | 0.00 | 0.00 | 0.00 | 59 | 1016.1 |
| 20260502040800 | 12 | 64 | 8.0 | 19.3 | 0.00 | 0.00 | 0.00 | 60 | 1016.1 |
| 20260502040300 | 12 | 68 | 6.4 | 20.9 | 0.00 | 0.00 | 0.00 | 61 | 1016.1 |
| 20260502035800 | 12 | 63 | 11.3 | 22.5 | 0.00 | 0.00 | 0.00 | 61 | 1016.1 |
| 20260502035300 | 12 | 63 | 16.1 | 20.9 | 0.00 | 0.00 | 0.00 | 61 | 1015.8 |
| 20260502034759 | 12 | 76 | 11.3 | 19.3 | 0.00 | 0.00 | 0.00 | 62 | 1016.1 |
| 20260502034259 | 12 | 46 | 11.3 | 20.9 | 0.00 | 0.00 | 0.00 | 62 | 1016.1 |
| 20260502033759 | 12 | 49 | 17.7 | 20.9 | 0.00 | 0.00 | 0.00 | 62 | 1016.5 |
| 20260502033259 | 12 | 51 | 14.5 | 20.9 | 0.00 | 0.00 | 0.00 | 63 | 1016.1 |
| 20260502032759 | 13 | 52 | 12.9 | 20.9 | 0.00 | 0.00 | 0.00 | 64 | 1016.1 |
| 20260502032259 | 13 | 46 | 12.9 | 22.5 | 0.00 | 0.00 | 0.00 | 64 | 1016.5 |
| 20260502031759 | 13 | 52 | 14.5 | 22.5 | 0.00 | 0.00 | 0.00 | 65 | 1016.1 |
| 20260502031300 | 13 | 76 | 9.7 | 25.7 | 0.00 | 0.00 | 0.00 | 67 | 1016.1 |
| 20260502030759 | 13 | 58 | 6.4 | 25.7 | 0.00 | 0.00 | 0.00 | 68 | 1016.1 |
| 20260502030259 | 13 | 48 | 11.3 | 19.3 | 0.00 | 0.00 | 0.00 | 69 | 1016.1 |
| 20260502025759 | 13 | 64 | 9.7 | 22.5 | 0.00 | 0.00 | 0.00 | 69 | 1016.1 |
| 20260502025300 | 13 | 35 | 11.3 | 22.5 | 0.00 | 0.00 | 0.00 | 69 | 1016.1 |
| 20260502024759 | 13 | 49 | 12.9 | 22.5 | 0.00 | 0.00 | 0.00 | 69 | 1016.5 |
| 20260502024259 | 13 | 56 | 11.3 | 22.5 | 0.00 | 0.00 | 0.00 | 70 | 1016.5 |
| 20260502023759 | 13 | 45 | 8.0 | 19.3 | 0.00 | 0.00 | 0.00 | 71 | 1016.5 |
| 20260502023300 | 13 | 27 | 11.3 | 19.3 | 0.00 | 0.00 | 0.00 | 72 | 1016.8 |
| 20260502022759 | 13 | 37 | 9.7 | 17.7 | 0.00 | 0.00 | 0.00 | 72 | 1016.5 |
| 20260502022306 | 13 | 56 | 4.8 | 17.7 | 0.00 | 0.00 | 0.00 | 71 | 1016.8 |
| 20260502021759 | 14 | 37 | 9.7 | 17.7 | 0.00 | 0.00 | 0.00 | 71 | 1016.5 |
| 20260502021259 | 14 | 36 | 8.0 | 17.7 | 0.00 | 0.00 | 0.00 | 71 | 1016.5 |
| 20260502020800 | 14 | 27 | 11.3 | 24.1 | 0.00 | 0.00 | 0.00 | 71 | 1016.5 |
| 20260502020259 | 14 | 37 | 16.1 | 24.1 | 0.00 | 0.00 | 0.00 | 72 | 1016.1 |
| 20260502015800 | 14 | 25 | 9.7 | 14.5 | 0.00 | 0.00 | 0.00 | 73 | 1016.1 |
| 20260502015305 | 14 | 22 | 8.0 | 12.9 | 0.00 | 0.00 | 0.00 | 74 | 1015.8 |
| 20260502014759 | 14 | 44 | 6.4 | 12.9 | 0.00 | 0.00 | 0.00 | 74 | 1016.1 |